Location: Unspecified
(0.0000°N, 0.0000°E)
Time: 12:30:49
(UTC+00:00)

Courier 1B - Visible Passes

Search period start: 24 February 2017 00:00
Search period end: 06 March 2017 00:00
Orbit: 962 x 1209 km, 28.3° (Epoch: 23 February)

Date Brightness Start Highest point End Pass type
(mag) Time Alt. Az. Time Alt. Az. Time Alt. Az.
24 Feb 9.2 18:25:16 10° SSW 18:31:29 25° SSE 18:37:39 10° ESE visible
24 Feb 7.8 20:18:20 10° SW 20:25:55 75° S 20:25:55 75° S visible
25 Feb 8.1 19:24:30 10° SW 19:32:13 57° SSE 19:35:45 32° E visible
25 Feb 9.5 21:19:13 10° WSW 21:22:40 27° W 21:22:40 27° W visible
26 Feb 9.7 05:07:54 10° N 05:10:20 12° NNE 05:12:47 10° NE visible
26 Feb 8.6 18:30:50 10° SW 18:38:09 42° SSE 18:45:27 10° E visible
26 Feb 8.0 20:24:53 10° WSW 20:32:33 64° NW 20:32:33 64° NW visible
27 Feb 7.9 19:30:46 10° WSW 19:38:41 86° NNW 19:42:28 34° NE visible
27 Feb 9.9 21:26:49 10° W 21:29:23 19° WNW 21:29:23 19° WNW visible
28 Feb 9.3 05:12:23 10° NNW 05:17:19 22° NNE 05:22:10 10° ENE visible
28 Feb 8.0 18:36:50 10° SW 18:44:40 72° SSE 18:52:25 10° ENE visible
28 Feb 8.8 20:32:03 10° W 20:39:11 37° NNW 20:39:20 37° NNW visible
01 Mar 9.5 04:20:36 13° N 04:23:21 16° NNE 04:27:15 10° ENE visible
01 Mar 8.5 19:37:34 10° WSW 19:45:08 51° NNW 19:49:17 27° NNE visible
01 Mar 10.3 21:35:25 10° WNW 21:36:13 12° NW 21:36:13 12° NW visible
02 Mar 9.9 03:30:27 12° NNE 03:30:27 12° NNE 03:31:45 10° NE visible
02 Mar 8.5 05:17:53 10° NW 05:24:02 40° NNE 05:30:03 10° E visible
02 Mar 8.2 18:43:21 10° WSW 18:51:07 68° NNW 18:58:55 10° NE visible
02 Mar 9.5 20:40:01 10° WNW 20:45:52 22° NNW 20:46:10 22° NNW visible
03 Mar 8.9 04:27:16 21° NNW 04:30:13 29° NNE 04:35:45 10° E visible
03 Mar 9.3 19:45:05 10° W 19:51:43 30° NNW 19:56:07 18° NNE visible
04 Mar 9.4 03:37:10 21° NE 03:37:10 21° NE 03:41:13 10° ENE visible
04 Mar 7.6 05:24:06 11° NW 05:30:38 76° NNE 05:37:07 10° ESE visible
04 Mar 9.0 18:50:28 10° W 18:57:38 40° NNW 19:04:52 10° NE visible
04 Mar 10.0 20:49:14 10° NW 20:52:51 14° NNW 20:52:58 14° NNW visible
05 Mar 8.0 04:34:02 33° NNW 04:36:53 54° NNE 04:43:15 10° ESE visible
05 Mar 9.8 19:53:31 10° WNW 19:58:33 18° NNW 20:02:52 12° NNE visible
